Dewpoint
28 24 21 18 21 23 24 24 25 21 24 22 19 17 17 18 19 22 24 26 27 26 25 26 26 26 26 26 26 25 25 25 25 25 25 26 26 27 27 28 29 29 29 32 29 28 28 29 29 31 31 30 29 28 25 26 24 22 19 21 18 18 18 19 15 15 18 14 15 18 14 12 12 14 15 12 13 14 14 15 14 16 13 13 13 12
28 23 21 22 23 25 25 25 25 25 23 22 19 18 18 20 19 22 25 26 27 25 24 24 23 23 24 24 23 23 24 22 23 24 25 25 26 27 27 28 29 29 31 29 27 27 28 28 30 30 30 31 28 27 25 24 23 22 21 19 16 17 18 16 13 15 17 17 14 15 15 12 13 12 11 10 11 14 15 14 14 14 14 13 12 11
24 20 21 24 25 25 25 25 25 24 22 20 20 17 15 18 20 22 24 24 26 25 25 23 20 20 20 20 21 22 22 24 25 25 25 25 26 26 27 28 29 29 29 29 27 28 27 29 29 29 29 28 27 27 25 23 21 20 21 21 20 20 21 19 17 21 20 16 17 15 13 12 13 14 12 11 15 14 14 12 14 14 13 12 11 11
19 20 24 26 25 24 23 23 23 22 22 19 19 19 17 19 17 18 22 23 25 23 23 22 21 21 22 22 22 23 23 24 25 26 27 28 26 27 27 27 28 28 29 30 29 26 26 28 28 29 29 28 28 27 25 22 20 20 22 20 20 21 21 22 20 18 22 20 19 22 18 17 15 12 15 13 11 13 11 12 13 12 12 12 10 10
19 22 25 25 24 24 23 23 22 19 19 20 20 17 17 19 20 18 20 21 20 20 22 22 19 18 18 17 17 21 24 24 25 26 27 28 29 29 30 30 30 29 29 30 30 27 26 27 27 28 28 28 27 27 25 23 20 18 20 23 21 20 20 22 23 20 19 20 21 18 16 17 17 15 10 8 8 9 12 13 11 10 11 11 10 10
22 24 25 24 23 23 23 22 23 21 19 19 19 20 21 21 21 21 20 17 18 18 23 18 13 12 15 16 17 18 22 22 24 25 24 24 26 30 30 30 30 31 31 30 30 30 27 26 27 28 28 27 27 26 26 22 20 20 21 22 21 20 22 22 20 19 19 19 18 15 12 10 11 10 9 6 7 10 10 10 10 11 9 9 9 9
23 25 27 25 23 23 22 22 23 21 19 13 14 20 22 21 20 20 18 16 12 10 16 20 11 11 14 16 15 19 21 21 22 24 23 24 24 26 29 29 30 30 30 31 31 31 28 27 27 27 27 27 27 25 26 24 21 20 20 22 21 20 20 22 21 20 20 18 15 14 14 13 12 12 11 7 9 11 11 13 10 8 8 9 7 6
24 23 24 23 23 23 22 21 23 20 18 16 19 20 18 19 19 18 16 15 17 19 21 21 13 9 13 14 19 20 21 21 21 21 21 21 22 24 27 29 30 30 30 31 31 31 30 28 27 26 27 27 26 26 26 24 22 20 20 22 21 21 22 23 20 19 21 17 17 17 15 14 15 13 9 9 10 12 13 10 7 7 7 7 6 6
21 20 23 21 22 22 20 22 23 20 19 19 20 21 21 21 20 18 17 17 18 13 15 16 19 13 10 17 17 19 17 18 20 21 21 22 22 24 26 27 29 30 31 32 32 32 31 29 27 27 27 27 27 26 25 23 21 20 20 23 22 20 23 22 19 19 20 20 18 18 16 14 14 13 14 14 13 12 11 7 5 5 5 5 5 5
20 22 24 21 21 19 21 22 23 23 23 21 21 18 18 21 21 19 17 17 13 11 10 13 17 10 14 16 16 17 19 19 23 23 23 23 23 23 25 26 28 29 30 31 32 32 32 31 29 27 27 27 27 26 27 24 21 21 21 22 22 20 20 19 17 21 18 17 18 15 14 14 13 13 12 11 10 10 9 6 6 5 5 4 4 4
23 29 28 24 21 22 23 25 23 23 23 23 24 22 19 17 19 19 15 10 8 2 7 12 15 16 11 13 14 13 20 22 20 20 21 22 23 24 26 26 27 28 29 29 30 31 31 31 29 28 28 27 27 26 26 24 21 20 21 21 22 20 20 21 19 18 16 16 16 14 14 14 14 13 12 11 10 9 7 5 6 6 5 5 4 4
23 24 25 27 29 25 25 25 25 25 25 24 21 19 15 15 8 15 12 8 2 2 6 10 16 17 6 12 15 20 21 19 18 19 22 20 20 22 25 27 29 29 30 30 31 31 31 30 29 28 28 27 26 25 25 25 23 22 21 21 19 19 18 18 19 17 18 17 16 15 14 13 13 13 11 11 10 10 8 6 6 6 5 5 5 4
18 21 23 24 29 24 22 21 23 23 23 23 20 15 5 1 5 -4 1 -0 -1 1 14 15 15 10 15 17 20 21 23 24 23 23 22 22 22 23 24 26 28 29 29 30 30 30 30 30 29 28 28 27 25 25 24 25 24 23 22 20 19 18 18 17 18 16 16 16 15 14 13 12 14 14 14 11 10 10 8 7 6 5 4 5 5 3
12 17 20 22 20 23 22 16 15 15 18 20 16 10 3 1 -6 -5 -2 -2 -1 7 10 16 14 12 13 16 21 22 23 24 24 25 25 24 23 23 24 26 27 28 29 29 30 31 31 30 30 29 28 27 26 24 24 24 24 24 22 20 19 18 17 18 16 15 15 15 14 14 13 13 14 13 12 12 11 9 8 8 5 5 5 4 3 3
-1 4 6 19 17 21 21 18 18 16 20 21 19 16 8 5 -0 -7 -7 -4 1 8 11 11 4 9 2 17 15 19 21 22 22 23 24 25 25 25 26 27 28 29 29 31 31 31 31 31 30 30 29 27 26 25 24 23 24 23 22 20 20 18 17 17 16 16 14 14 14 13 14 14 14 12 11 12 12 10 8 5 5 5 5 4 3 3
9 4 5 19 21 22 21 22 22 21 20 22 22 19 13 6 11 1 1 1 1 9 11 5 10 11 15 18 17 19 20 21 25 26 28 27 28 29 29 29 29 30 30 30 31 31 31 31 31 30 29 28 27 26 25 23 24 23 22 20 19 18 18 17 17 15 14 14 13 13 13 14 13 13 13 12 10 7 6 5 5 5 4 4 4 4
7 -4 17 23 22 22 22 23 20 19 6 16 19 11 13 17 12 6 10 9 11 2 9 -2 13 16 15 14 19 18 16 17 19 20 20 19 19 24 25 26 27 29 29 30 30 30 31 32 30 30 29 28 27 26 25 24 23 22 21 20 18 17 16 16 17 16 15 14 13 13 13 13 13 12 10 8 7 6 6 6 6 5 4 4 4 5
-0 3 12 21 18 24 24 23 25 25 20 17 10 16 21 20 17 14 5 -0 -7 -1 4 6 6 10 10 5 19 15 15 17 17 15 15 17 19 21 23 24 26 28 29 29 29 30 31 32 31 30 30 29 27 26 25 24 23 22 20 19 18 17 15 15 15 15 14 13 13 13 13 13 13 10 9 9 6 6 6 5 5 4 5 4 3 4
14 5 12 20 21 23 21 22 19 23 25 23 17 18 14 6 4 11 3 -1 -2 -5 0 6 3 7 9 13 16 16 12 9 11 13 15 16 17 19 20 22 25 27 28 29 28 29 30 31 31 30 29 29 27 27 25 24 23 21 19 18 17 17 15 15 15 15 15 13 11 12 13 12 11 11 9 8 7 6 5 4 4 4 4 4 4 5
11 0 8 10 20 20 18 17 11 18 23 24 24 21 20 16 4 4 7 4 6 1 0 8 4 4 11 15 15 10 10 10 11 13 14 16 18 19 21 22 24 27 28 28 28 28 29 31 31 30 29 28 27 25 25 23 22 20 19 20 17 16 15 15 15 15 14 14 14 13 14 13 12 10 8 6 5 4 3 4 4 4 3 4 5 4
13 2 -4 5 12 13 7 16 9 18 15 18 19 14 17 9 12 12 6 8 8 -5 -2 -5 4 6 10 17 14 11 10 12 12 13 15 17 19 20 21 23 24 26 27 27 27 27 29 31 31 30 29 28 26 25 24 23 21 20 19 18 19 16 15 15 14 13 14 14 13 13 11 11 10 8 7 5 4 4 3 3 5 4 4 4 3 4
7 11 5 9 10 8 7 13 17 19 22 21 21 16 20 9 8 2 8 7 6 5 6 -4 4 7 9 18 13 12 12 13 14 16 17 19 20 21 21 23 24 25 25 25 25 27 29 31 31 29 28 26 25 24 23 22 20 19 18 17 17 16 15 14 14 13 13 13 13 12 11 10 9 7 6 4 3 3 3 3 3 3 4 3 3 3
15 12 10 11 10 9 8 18 22 21 21 21 20 17 16 9 9 1 -1 4 7 7 6 4 3 10 16 17 15 15 15 16 17 19 20 21 20 20 21 22 23 23 23 23 24 27 30 31 30 29 27 25 24 24 23 21 20 19 18 16 16 14 14 14 14 13 12 12 12 11 10 9 8 6 4 3 2 2 2 2 3 4 3 2 2 3
26 10 6 10 11 6 9 12 20 18 20 18 18 16 14 10 12 13 9 5 7 3 8 4 7 11 9 21 18 18 18 21 24 25 23 20 18 18 17 18 19 20 21 24 26 29 30 29 28 27 27 26 24 23 22 22 20 19 18 16 15 14 13 14 13 13 12 11 11 10 9 8 6 5 3 1 1 1 2 1 2 3 3 2 2 1
10 13 5 2 2 4 7 8 11 15 19 17 13 13 13 8 6 3 4 1 8 10 12 10 6 7 7 18 23 24 19 14 13 14 19 17 16 16 16 18 19 21 22 23 24 26 29 28 28 27 27 26 25 24 22 22 21 19 18 16 14 14 13 14 14 12 11 12 10 10 8 7 4 2 1 0 0 0 0 1 1 2 2 1 1 1
5 10 4 -1 -4 -1 -0 0 3 4 1 12 17 17 13 11 10 10 6 6 6 9 10 3 8 9 9 11 10 11 12 13 14 14 16 17 16 17 18 19 21 22 23 23 24 26 28 29 28 27 27 26 25 24 23 22 21 20 18 15 14 13 13 13 13 11 10 9 8 6 6 5 3 1 -0 -0 -0 -0 0 1 1 0 0 1 1 1
7 11 10 9 7 6 9 9 9 14 8 6 3 14 13 11 7 6 8 7 10 8 11 12 12 11 11 11 11 13 13 13 12 13 14 15 17 19 20 21 22 23 23 23 25 27 29 29 28 28 27 27 26 24 23 22 21 20 17 15 14 12 13 12 11 10 8 8 6 5 4 3 1 -0 -1 -1 -2 -1 -0 -0 0 1 1 2 2 1
4 8 12 13 11 13 10 10 11 14 11 11 9 13 11 13 11 13 13 11 13 7 9 13 12 13 13 13 13 13 13 12 13 14 15 16 18 20 20 21 25 21 21 23 25 26 27 28 29 29 28 27 26 25 23 23 22 20 17 15 13 12 12 11 10 9 8 6 5 4 3 1 -1 -1 -2 -3 -2 -1 -0 0 1 1 1 2 1 1
8 7 6 8 9 12 14 13 13 13 13 13 13 14 14 12 12 13 14 16 11 10 9 8 11 12 11 11 12 12 13 14 15 16 17 19 20 20 20 20 20 20 20 22 23 24 27 28 29 29 28 27 27 25 23 23 21 19 17 15 13 11 10 10 9 8 7 5 4 3 1 -1 -2 -2 -3 -1 -2 -1 0 1 1 2 1 1 1 2
9 9 5 7 12 14 14 14 14 14 14 13 14 14 14 13 13 16 16 15 14 14 13 13 13 12 14 14 15 15 16 17 18 19 20 19 18 19 19 19 19 19 20 21 22 24 26 28 29 29 29 28 27 26 24 23 21 19 16 14 12 11 10 10 9 7 6 4 3 1 -1 -3 -3 -3 -3 -3 -1 0 1 2 2 2 1 1 1 1
8 9 12 8 7 13 12 12 10 13 12 12 11 12 13 14 14 15 15 14 14 15 16 15 15 16 17 17 17 18 18 19 20 18 16 17 18 18 19 19 19 20 20 21 22 24 26 28 30 30 29 28 28 27 26 24 22 19 17 14 12 11 10 9 8 7 5 3 2 -0 -3 -4 -4 -4 -3 -2 -0 1 2 2 2 2 1 1 1 1
7 9 -1 2 8 12 10 10 11 12 12 12 11 10 10 12 9 12 11 14 14 14 14 12 12 15 16 16 17 17 16 16 15 16 16 17 18 18 18 18 19 20 21 22 22 24 26 28 29 30 29 29 28 27 26 25 23 19 16 14 12 11 10 9 7 6 4 2 0 -2 -4 -5 -4 -3 -2 -1 1 2 2 2 2 2 1 1 1 1
4 4 6 3 7 10 11 11 12 11 6 3 4 4 7 12 13 14 15 16 15 14 10 7 13 12 13 16 16 16 16 15 14 14 17 18 18 18 19 20 21 21 21 22 23 24 25 27 28 29 30 30 29 28 27 26 23 19 17 14 13 10 9 8 7 5 3 0 -2 -4 -5 -5 -4 -3 -1 -0 1 2 2 2 2 1 1 1 1 1
4 7 7 5 6 8 12 11 9 2 -6 -3 9 8 8 7 7 8 10 12 15 15 14 15 13 15 16 16 16 16 16 15 16 17 20 20 20 20 21 21 21 22 23 23 23 25 26 28 29 30 31 31 30 28 28 26 23 21 18 15 12 9 9 8 6 4 2 -0 -3 -5 -5 -5 -4 -2 -1 1 2 2 2 2 2 1 1 1 1 1
10 5 7 1 7 10 10 8 6 -6 -2 9 15 15 14 11 10 11 14 14 15 16 16 15 15 15 16 17 18 18 18 18 18 18 19 20 21 21 21 22 22 22 21 21 22 23 25 26 28 30 31 30 29 28 27 24 23 20 16 14 11 10 9 8 6 3 1 -1 -4 -6 -6 -5 -3 -2 -0 1 2 2 2 2 1 1 1 1 1 1
5 7 2 9 -0 3 3 -4 -5 1 4 11 8 22 20 16 14 15 14 14 18 17 17 17 17 17 18 18 18 19 19 19 19 19 19 20 21 22 23 22 21 21 21 22 23 24 25 26 27 28 29 30 29 27 25 24 21 18 15 13 11 9 8 7 5 2 -0 -2 -5 -6 -5 -4 -3 -1 -0 1 2 2 2 1 1 1 1 1 2 2
13 2 7 10 4 2 -1 -1 8 8 5 3 3 12 20 17 18 16 9 12 14 17 19 18 17 16 17 17 17 17 18 19 18 18 21 21 24 25 25 22 22 22 22 23 24 25 27 28 29 30 31 29 28 27 25 23 19 17 14 11 12 9 7 5 4 1 -1 -2 -4 -4 -4 -3 -2 -0 1 1 2 2 2 1 1 1 1 1 2 1
16 12 13 5 6 1 3 8 8 6 1 5 2 14 21 21 22 20 15 18 19 17 19 15 15 15 16 17 17 18 20 18 17 17 19 20 21 22 22 23 22 22 23 23 24 26 27 28 29 30 30 29 28 26 24 21 18 16 13 12 10 8 7 4 3 1 -1 -3 -4 -3 -4 -3 -1 1 2 2 3 3 2 2 1 1 2 2 1 1
14 13 8 7 6 4 4 2 -2 -2 5 7 11 13 17 25 24 21 13 15 19 17 16 17 16 17 17 17 18 19 19 18 18 18 20 21 21 22 22 23 23 24 24 25 25 26 28 29 30 29 29 28 27 26 23 19 17 16 14 13 9 8 7 5 3 1 -1 -2 -3 -3 -2 -1 0 2 3 5 5 4 3 2 1 2 2 2 1 1
12 3 7 11 8 6 -2 2 6 0 7 10 11 12 17 26 21 17 10 10 15 16 17 17 17 18 18 19 19 19 18 18 19 20 21 21 22 23 23 24 25 25 26 27 27 29 30 30 30 29 28 27 27 26 22 18 16 16 16 14 11 8 8 7 5 2 -1 -2 -2 -2 -1 -0 3 3 4 6 5 4 4 3 3 2 2 2 1 1
10 10 7 14 1 6 12 7 0 9 13 17 16 16 23 24 16 8 9 14 16 18 19 19 19 19 19 19 20 19 20 21 21 22 23 23 23 24 25 26 27 27 27 27 28 30 31 30 30 29 29 28 27 24 21 17 16 16 16 15 12 11 10 9 6 2 1 -1 -1 -0 0 1 3 5 6 6 5 5 3 2 3 2 2 1 -0 -1
3 1 3 -0 4 8 8 6 11 9 14 14 14 22 25 12 11 12 14 17 19 20 20 21 20 20 20 20 21 21 22 23 24 24 24 24 24 25 26 26 26 27 28 29 30 31 31 30 30 29 29 28 26 23 20 17 17 17 17 16 14 14 13 10 6 3 1 0 1 2 3 3 3 6 6 5 5 4 2 1 2 1 -1 -3 -2 -1
10 4 5 3 6 2 -0 3 5 2 8 15 19 17 22 14 14 15 17 19 23 21 20 20 20 21 21 21 22 23 23 23 24 24 24 25 25 25 26 26 26 27 27 28 29 30 31 31 30 30 30 29 26 23 20 17 17 18 18 17 17 16 12 10 7 4 3 3 4 5 8 7 6 6 5 4 4 3 2 1 -0 -1 -3 -3 -3 -2
10 2 1 1 10 5 3 2 3 11 11 20 14 13 15 16 18 19 20 18 19 21 20 20 21 22 22 23 23 23 23 24 24 24 24 25 25 25 26 26 27 27 27 28 29 30 31 30 30 30 30 29 27 23 20 18 18 19 19 18 18 15 12 9 7 5 5 7 6 9 8 8 6 6 5 4 3 2 2 1 -0 -2 -4 -4 -2 -0
13 10 13 10 9 10 9 12 13 14 13 17 17 16 17 19 21 20 20 19 19 20 21 21 22 23 23 24 24 24 24 23 23 24 24 25 25 25 26 26 26 27 27 28 28 30 30 30 30 30 30 30 28 24 21 19 19 20 20 20 18 16 12 10 8 8 8 7 7 6 6 6 6 6 5 4 3 2 0 -0 -1 -1 -3 -3 -1 0
16 13 17 11 15 16 15 14 15 14 15 15 20 21 20 20 21 20 19 19 21 22 22 22 22 23 24 24 24 24 24 24 24 24 24 25 25 25 26 26 26 27 27 28 28 29 30 30 30 30 29 29 28 26 23 20 19 20 21 21 18 15 13 11 9 8 8 8 7 6 6 5 5 5 4 4 3 2 1 0 -2 -1 -1 -2 -1 -0
14 17 15 13 18 13 13 13 13 13 13 16 18 21 21 21 21 20 20 21 22 23 23 24 24 24 25 25 25 24 24 24 24 24 25 25 25 25 26 26 26 26 27 27 28 29 30 30 29 29 29 28 29 27 25 22 21 20 21 21 18 15 13 11 10 8 8 8 6 6 5 5 3 3 3 3 1 1 0 -0 -1 -1 -1 -1 -0 0
18 17 14 15 15 13 14 15 16 15 16 19 22 22 19 20 21 21 22 23 23 24 24 24 25 25 25 25 25 25 24 25 24 24 25 25 25 26 26 26 26 26 27 28 29 29 29 29 29 29 28 28 29 28 26 25 23 22 21 20 17 15 13 11 9 8 8 7 6 4 4 3 2 2 2 2 1 -0 -1 -1 -1 -1 -0 0 1 1
18 16 17 17 14 16 16 17 18 20 21 22 21 19 20 21 21 21 22 24 24 24 24 24 24 25 25 25 25 25 25 25 25 25 25 25 26 26 26 26 27 27 27 28 28 29 29 29 29 28 28 28 29 29 28 26 26 24 22 20 17 14 12 11 9 9 8 7 6 4 2 2 2 2 2 2 0 1 0 -1 -1 -1 0 2 3 3
17 16 18 15 17 17 17 17 20 18 19 20 20 20 20 22 21 22 23 24 24 24 24 24 24 25 25 26 26 26 25 25 25 25 25 25 26 26 26 27 27 27 27 28 29 30 29 29 29 28 28 28 28 28 27 27 27 25 23 20 17 14 13 12 10 9 8 7 5 4 2 1 1 2 2 2 1 0 0 2 7 3 1 1 7 11
17 17 19 15 14 16 17 18 22 22 22 23 23 24 23 23 22 22 23 23 24 24 24 24 24 24 25 25 26 26 26 26 25 25 25 25 26 26 27 27 27 27 28 28 29 29 29 29 28 28 28 28 28 28 28 27 27 26 22 20 18 15 14 14 11 9 8 6 5 4 3 1 0 1 1 2 1 0 -1 -1 3 13 13 9 9 12